Wind_Speed
15 16 15 15 15 16 16 17 18 19 20 21 22 22 23 24 24 24 25 25 26 26 27 27 28 28 28 29 29 29 29 30 30 30 29 29 29 30 30 31 31 31 32 32 32 32 33 33 33 34 34 34 34 34 34 34 34 34 34 34 34 34 34 33 33 32 32 32 32 31 32 32 32 31 32 32 32 33 33 34 35 35 36 37 38 40 40
13 13 13 14 15 16 17 19 20 21 22 23 23 24 25 25 26 27 27 27 27 28 28 28 28 28 27 27 27 27 27 27 27 27 27 28 28 29 30 30 31 31 32 32 33 33 33 34 34 34 34 34 34 34 34 34 33 33 33 33 33 33 33 33 33 32 31 31 30 30 30 31 31 31 31 32 32 33 34 35 36 37 37 38 40 41 41
11 12 13 15 16 17 19 20 21 23 24 25 26 26 27 27 27 27 27 26 26 26 26 25 25 25 25 25 25 25 25 25 26 26 27 28 28 29 30 30 31 32 32 33 33 33 34 34 34 34 34 34 33 33 33 32 32 32 32 32 32 32 32 32 33 34 34 34 34 33 32 32 32 32 33 34 35 35 36 36 37 37 38 39 40 41 42
12 13 15 16 18 19 21 22 24 25 26 26 26 26 26 26 25 25 24 24 23 23 23 23 23 23 23 23 23 24 24 25 25 26 27 27 28 29 30 31 32 32 32 33 33 33 33 33 33 33 33 32 32 32 31 31 31 31 31 31 31 32 32 32 33 34 34 35 35 35 35 35 35 35 36 36 36 36 36 36 37 38 38 39 40 41 43
13 15 16 18 20 22 23 24 24 24 24 24 24 23 23 23 22 22 22 22 21 21 21 21 21 21 22 22 23 23 24 24 25 26 27 28 29 30 30 31 32 32 32 31 31 31 31 31 31 31 31 31 31 31 30 30 31 31 31 31 32 32 33 33 34 34 34 35 35 36 36 36 36 37 37 36 36 37 38 38 39 40 40 41 42 44 46
15 17 19 20 21 22 22 22 22 22 22 21 21 21 21 21 21 21 21 21 21 21 21 21 21 21 22 22 22 23 23 24 25 26 27 29 30 31 31 32 32 31 31 31 30 29 29 29 29 29 29 30 30 30 30 30 31 31 32 33 33 33 34 34 34 35 35 35 36 36 36 36 37 37 37 37 38 39 40 40 41 42 44 45 46 48 49
17 18 19 20 20 20 20 20 20 21 21 21 21 21 21 21 21 21 21 21 21 21 21 21 21 21 21 22 22 23 24 25 27 28 29 30 31 32 32 32 32 32 31 31 30 29 29 29 29 29 29 29 29 30 30 30 31 32 32 33 33 33 34 34 35 35 36 36 36 37 37 37 38 38 38 39 40 41 41 42 43 45 46 47 48 49 50
17 18 18 19 19 19 20 20 21 21 21 21 21 21 21 21 21 21 21 21 21 21 21 21 21 21 22 23 24 25 26 27 29 30 31 31 32 32 32 32 32 32 31 31 30 30 30 30 29 29 29 29 29 29 29 30 31 32 32 33 33 34 35 36 36 37 37 37 38 38 38 38 39 39 40 41 42 42 43 44 45 46 47 48 49 49 50
17 17 18 18 19 20 21 22 22 23 23 23 22 22 22 21 21 21 21 21 21 21 21 22 22 23 24 25 25 26 27 29 30 30 30 30 30 31 31 31 30 30 30 30 29 29 28 28 28 28 28 28 29 29 30 31 32 32 33 34 35 35 36 38 38 39 39 40 40 39 39 39 39 40 41 42 42 43 44 45 46 46 47 47 48 49 50
17 18 19 20 22 23 23 24 24 24 24 24 24 23 23 23 22 22 22 22 23 22 23 23 24 25 25 26 27 28 29 29 30 30 31 31 31 31 30 30 29 29 28 27 27 27 27 28 28 29 29 30 31 31 31 32 33 34 34 35 36 37 39 40 41 41 42 43 43 43 42 41 41 42 42 42 42 43 43 44 45 46 47 48 49 50 52
19 20 22 23 24 25 25 25 25 25 25 25 25 25 24 24 24 23 23 23 24 24 24 25 26 26 27 28 29 31 31 32 33 33 33 33 32 31 31 30 29 28 28 28 28 29 30 30 31 31 31 31 32 32 32 33 34 36 36 37 38 40 41 42 43 44 45 46 46 46 45 44 44 44 43 43 44 44 44 45 46 47 48 50 51 52 53
21 22 24 24 25 26 26 26 26 26 27 27 26 26 25 25 24 25 24 24 25 26 26 27 28 28 29 31 32 33 33 34 34 34 34 33 33 32 32 32 31 30 30 30 30 30 31 31 31 32 32 32 33 34 34 35 36 37 38 39 41 41 42 43 45 47 48 48 50 50 48 47 47 46 45 46 46 46 46 46 47 48 50 51 52 54 55
22 23 24 25 25 26 26 26 26 26 27 27 27 26 26 25 25 26 26 26 27 28 28 28 29 30 31 31 32 33 33 33 33 34 34 33 33 32 32 31 31 30 30 30 30 30 31 31 32 32 33 34 34 35 36 36 37 38 39 40 41 42 43 45 46 48 49 51 53 53 51 49 49 48 48 48 48 49 49 49 49 51 53 54 55 56 57
23 24 25 25 26 26 26 26 26 26 26 27 27 27 27 26 26 27 27 27 28 29 29 29 30 30 30 31 31 31 32 32 33 33 33 32 32 31 30 30 30 30 30 30 30 31 32 32 33 34 34 35 35 36 37 38 38 39 40 40 41 43 44 46 48 49 51 52 53 53 52 52 52 51 51 51 51 53 54 54 53 55 56 57 58 59 59
23 24 25 26 27 27 27 27 26 26 26 26 27 27 26 26 26 27 28 28 28 29 29 29 29 29 30 30 30 31 32 32 32 32 31 31 30 30 29 29 29 29 30 30 31 32 33 33 34 35 36 36 37 37 38 39 39 40 41 42 43 45 46 47 48 50 51 52 52 53 53 53 53 54 54 54 55 56 57 58 57 58 59 60 61 61 61
23 24 25 27 27 28 27 27 26 26 26 26 26 27 27 27 27 27 28 28 28 29 29 29 29 29 30 30 30 31 32 31 31 31 30 30 29 29 29 29 29 30 30 31 32 33 34 35 35 36 37 38 38 38 39 40 40 41 42 43 44 45 46 46 47 49 50 52 54 55 55 55 55 55 55 56 57 58 59 59 59 60 61 62 62 62 63
22 24 26 27 28 28 28 27 27 26 26 26 26 27 27 27 27 27 27 28 28 29 29 29 28 29 29 30 30 31 31 30 30 30 30 29 29 29 29 30 31 31 31 33 33 34 35 36 36 37 38 38 38 39 40 40 40 41 42 42 42 43 44 45 46 48 50 52 54 54 55 55 55 55 56 57 57 58 59 61 61 62 62 62 63 63 64
22 24 26 28 29 28 28 28 27 27 26 26 27 27 27 27 26 26 27 28 28 29 29 28 28 28 29 29 30 30 30 29 29 29 29 29 29 29 30 31 32 32 32 33 34 35 36 37 37 37 39 39 39 40 41 41 41 41 42 42 43 44 45 46 47 49 51 52 54 54 55 55 56 56 56 57 58 59 60 61 62 63 63 63 63 63 64
22 24 26 28 29 29 28 28 28 28 27 28 28 27 26 26 26 26 27 28 28 28 29 28 27 28 28 29 29 29 29 28 28 28 28 29 29 29 30 31 32 33 33 33 34 35 36 37 37 38 39 40 40 40 42 42 42 43 44 44 45 46 47 48 49 50 52 53 54 55 55 56 57 57 58 59 59 60 61 61 62 63 63 62 63 63 64
22 25 27 28 29 29 28 28 29 28 28 28 27 26 26 26 26 26 27 27 26 27 28 27 27 28 28 28 28 28 27 27 27 27 28 29 30 30 30 31 32 33 33 34 34 35 36 37 38 39 40 41 41 41 43 43 43 45 45 45 47 48 48 49 51 52 53 55 56 58 59 59 59 59 59 60 60 61 62 62 63 63 63 63 63 63 64
23 25 27 28 28 28 29 29 29 29 28 28 27 26 26 26 26 27 26 26 26 27 28 27 27 27 27 27 27 27 27 27 27 27 28 28 30 30 30 31 31 32 34 34 34 35 36 37 39 40 41 42 42 42 44 45 44 46 47 47 48 49 50 51 52 53 55 56 58 59 60 60 60 60 60 61 61 62 63 64 64 64 64 64 64 64 64
24 26 28 28 28 28 29 29 29 29 29 29 28 27 27 26 26 26 25 25 26 27 27 26 27 27 27 27 26 26 27 27 27 28 28 28 29 30 30 31 31 32 33 34 35 36 37 38 40 41 41 44 44 44 45 46 46 47 48 48 49 50 50 51 52 53 54 55 56 58 59 60 60 60 61 62 62 63 64 65 65 65 64 64 64 64 64
24 26 27 28 28 28 29 30 30 30 30 30 29 28 26 25 25 25 25 26 26 26 26 26 26 26 26 26 26 26 27 27 27 28 28 28 28 29 30 31 32 32 34 35 36 37 38 39 41 41 42 45 46 45 46 47 47 48 49 50 50 51 50 51 52 52 53 54 56 57 59 60 60 60 61 62 63 64 65 65 65 65 65 64 64 64 63
25 26 27 27 27 28 29 30 31 31 31 31 29 27 26 25 25 26 26 26 26 25 25 26 26 25 25 25 26 26 27 27 27 28 29 28 29 29 30 32 33 33 34 36 37 38 39 40 42 42 42 46 47 46 47 48 48 49 50 50 51 51 51 51 52 52 53 54 56 57 58 59 60 60 60 62 63 65 66 66 66 65 65 65 65 64 63
25 26 26 26 27 28 29 30 31 31 32 31 30 28 26 26 26 26 26 26 25 25 25 25 26 26 25 25 26 26 26 27 27 28 29 29 30 30 31 32 33 34 35 36 37 39 40 41 42 43 43 46 48 47 47 49 49 49 51 51 52 52 52 52 52 52 54 55 56 57 58 59 59 59 60 62 64 66 67 67 66 66 65 65 65 64 63
25 26 26 26 27 28 29 30 31 32 32 32 31 29 28 27 27 26 26 26 26 26 26 25 26 26 24 24 25 26 26 27 27 28 29 30 31 31 32 33 34 35 36 37 38 40 41 42 43 44 44 47 48 48 48 49 49 50 51 52 53 53 53 53 53 53 54 55 56 57 58 58 59 59 60 62 65 67 68 68 67 67 66 65 65 64 64
26 26 26 26 26 28 29 30 31 32 32 33 32 30 29 28 28 27 27 27 26 26 25 25 25 26 25 25 26 27 27 27 28 29 30 31 32 32 33 34 35 36 37 38 39 41 42 43 44 45 46 47 49 49 49 50 50 50 51 52 53 54 54 54 54 54 55 56 57 58 59 59 60 60 61 63 66 68 69 69 69 68 67 66 65 65 65
26 27 27 27 27 28 29 30 31 32 32 33 33 32 31 30 29 28 27 27 27 26 26 25 26 26 26 26 26 27 27 28 29 29 30 31 32 33 34 35 36 37 38 39 40 41 43 44 45 46 47 49 50 50 51 51 51 52 52 53 53 54 55 55 55 55 56 57 58 59 61 61 61 61 61 63 66 68 69 70 70 69 68 67 67 66 66
27 27 27 27 27 28 29 30 31 32 33 33 34 34 33 32 31 29 28 28 27 27 27 26 26 26 27 27 28 27 28 29 29 30 31 32 33 34 35 36 37 38 38 40 41 42 43 45 46 47 49 50 51 52 52 52 52 53 53 53 54 54 55 55 55 55 56 57 58 59 61 61 61 61 62 63 66 68 70 70 71 70 70 69 68 68 67
27 28 28 28 28 28 29 30 31 32 32 33 34 34 33 32 31 30 29 28 27 28 28 27 27 27 27 28 29 28 28 30 31 31 32 33 34 35 36 37 38 39 40 41 43 43 44 46 48 49 50 51 52 53 54 53 53 53 54 54 54 54 55 55 56 56 56 57 58 59 60 61 61 61 62 63 65 67 69 71 71 71 71 70 70 69 68
28 29 29 29 29 29 30 31 32 32 32 33 34 34 33 33 32 31 30 29 29 29 29 28 28 29 28 30 31 30 30 32 33 32 33 35 35 36 38 38 39 41 41 42 44 44 46 47 49 50 51 53 53 54 55 55 55 55 55 54 54 55 55 56 56 56 56 57 58 59 60 61 62 62 62 62 64 66 69 70 72 72 72 71 71 70 69
28 29 29 30 30 30 31 31 32 32 33 34 34 34 34 34 34 33 32 31 30 30 30 29 30 30 30 31 32 31 31 33 34 34 35 36 37 37 39 39 41 42 43 44 45 46 47 48 50 51 52 54 54 55 56 56 56 56 56 55 55 55 56 56 57 56 57 57 58 59 60 61 62 62 62 62 63 66 68 70 71 73 73 72 72 71 69
28 29 30 30 31 31 31 32 32 33 34 34 35 35 35 35 35 34 34 33 32 31 31 31 31 31 32 33 33 33 33 34 35 35 36 38 38 39 40 41 42 43 44 45 46 46 48 49 51 52 53 54 55 56 56 57 57 57 56 56 56 56 56 57 57 57 57 58 59 60 61 61 62 62 62 62 63 65 67 69 71 72 73 73 72 71 70
28 29 30 31 32 32 32 33 33 34 35 35 36 37 37 37 37 37 36 35 34 33 32 32 32 32 33 34 34 34 34 35 36 36 37 39 39 40 41 42 43 44 45 46 47 47 48 50 51 52 54 55 56 57 57 57 57 57 57 56 56 56 56 57 58 58 58 58 59 60 61 62 62 63 63 63 63 64 66 68 70 71 73 74 73 72 71
28 29 30 32 32 33 33 34 34 35 36 37 38 39 39 39 40 40 39 37 36 35 34 34 34 34 34 35 35 35 36 37 37 38 39 40 41 42 42 43 44 45 46 47 48 48 49 51 52 53 54 55 56 57 58 57 57 57 57 56 57 57 57 57 58 58 59 59 59 60 61 62 63 63 63 63 63 64 66 67 68 70 72 73 74 73 72
27 29 30 31 32 33 34 35 36 37 38 39 39 40 41 41 42 42 42 41 40 39 38 36 35 35 35 36 36 36 37 38 38 39 40 41 42 43 44 44 45 46 47 48 49 49 50 52 53 54 55 56 57 58 58 57 57 57 57 57 57 57 57 58 58 59 59 59 60 60 61 62 63 64 64 64 64 64 65 66 68 69 70 72 73 74 73
26 28 29 31 32 33 34 36 37 38 39 40 41 42 43 43 44 45 45 44 43 42 40 38 37 37 37 37 37 37 38 38 39 40 41 42 43 44 45 46 47 47 48 49 50 51 51 52 53 54 55 56 57 57 57 57 57 57 56 57 57 57 57 58 58 59 59 59 60 60 61 62 63 64 64 64 64 64 65 66 67 68 69 70 71 72 73
25 27 28 30 31 32 34 36 37 38 40 41 42 43 45 46 46 47 47 46 45 43 42 40 38 38 38 38 38 39 38 39 39 40 41 42 43 44 45 46 47 48 49 50 51 52 53 53 54 54 56 56 57 57 57 57 57 56 56 56 56 57 57 58 58 59 59 59 59 60 61 62 63 64 64 64 64 64 65 66 66 67 68 69 70 71 71
24 26 27 29 30 32 33 35 36 38 39 41 43 44 46 47 48 48 49 48 47 46 45 42 40 39 39 39 39 39 39 40 40 41 42 42 43 44 45 46 47 49 50 51 52 53 54 54 54 55 56 56 56 56 56 56 56 56 55 56 56 56 57 58 58 59 60 60 59 60 60 61 63 64 64 64 64 64 65 65 66 66 67 67 68 69 70
23 25 26 28 30 31 32 34 36 37 39 41 42 44 46 48 49 50 50 51 50 50 49 47 45 43 41 40 40 40 40 41 42 42 42 42 43 44 45 46 47 48 49 51 52 53 54 55 55 56 56 56 55 55 55 55 55 55 55 55 55 56 57 57 58 58 59 60 60 60 61 62 63 64 64 65 65 64 65 65 66 66 66 67 67 68 69
23 24 26 27 29 31 32 33 35 37 39 40 42 44 46 47 49 51 52 52 53 53 52 51 49 47 44 43 42 41 41 42 42 42 43 43 44 44 45 46 47 48 49 50 51 52 53 54 54 54 54 54 54 54 54 54 54 54 54 54 55 55 56 57 58 58 59 60 60 60 61 61 63 64 64 65 65 65 65 65 66 66 66 66 67 68 68
22 24 26 27 29 31 32 33 35 37 38 40 42 44 45 47 49 51 53 54 55 55 55 54 53 51 48 46 44 43 43 43 44 43 44 45 45 46 46 47 49 50 51 51 51 51 52 52 52 52 52 52 52 52 53 53 53 53 53 53 54 55 56 57 58 58 59 60 60 60 61 61 63 64 64 65 65 65 65 65 65 66 66 66 67 67 68
22 24 26 27 29 31 32 34 36 37 38 40 42 43 45 47 49 50 52 54 55 56 56 56 56 54 52 50 47 45 44 45 45 45 46 47 47 48 49 50 52 53 53 52 51 51 51 51 51 51 51 51 51 51 52 52 52 52 52 53 54 54 56 57 58 58 59 60 60 60 61 61 62 63 64 65 65 65 65 65 65 66 66 66 66 67 68
22 24 26 27 29 31 32 34 35 37 38 40 42 43 45 47 48 50 51 53 55 56 57 57 57 56 55 53 51 48 46 46 46 46 47 48 49 50 52 53 54 55 55 54 53 52 51 50 50 50 50 50 50 50 51 51 51 52 52 52 53 54 55 57 58 58 59 60 61 61 61 61 62 63 64 65 66 66 65 65 65 66 66 66 66 67 67
21 24 26 27 29 31 32 34 36 37 38 40 42 44 45 47 48 49 50 52 54 56 57 58 58 58 57 56 54 51 49 48 47 48 48 49 50 52 53 54 55 56 57 56 56 54 52 51 50 50 50 50 50 50 50 50 51 51 51 52 53 54 55 56 58 58 58 60 61 61 61 61 62 63 64 65 66 66 66 65 65 65 66 66 66 66 67
21 24 26 27 29 31 33 34 36 37 39 41 42 43 45 46 48 49 50 51 53 55 57 58 59 59 58 58 56 54 52 50 49 49 50 50 51 52 54 55 56 57 58 58 58 58 56 54 52 51 50 50 50 50 50 50 50 50 51 51 52 53 55 56 57 58 58 59 61 61 61 62 62 63 64 65 66 66 66 65 65 65 65 66 66 66 66
21 23 25 27 29 31 33 35 36 37 39 40 42 43 45 46 48 49 50 51 52 54 56 58 59 59 59 60 58 56 54 52 51 50 51 51 52 53 54 55 56 58 59 60 60 60 58 56 54 52 51 51 50 50 50 50 50 50 50 51 52 53 54 56 57 58 58 59 61 62 62 62 62 63 64 65 66 66 66 65 65 65 65 65 65 65 66
22 24 26 28 29 31 33 35 36 37 39 40 42 43 45 46 48 49 51 52 52 54 55 57 59 60 60 61 60 59 57 55 53 52 52 52 52 53 54 56 57 58 59 60 61 61 61 59 57 54 52 51 51 50 50 50 50 50 50 51 52 53 54 55 57 58 59 59 61 62 62 62 63 63 64 65 65 66 66 66 65 65 65 65 65 65 65
23 24 26 28 30 31 33 35 37 38 39 41 42 43 45 46 48 49 51 52 53 54 55 57 59 60 61 61 61 60 59 57 55 54 53 53 53 54 55 56 57 58 59 60 61 62 62 61 59 56 54 53 51 51 50 50 50 50 50 50 51 52 54 55 57 58 59 59 61 62 62 62 63 64 64 65 65 66 66 66 65 65 65 65 65 65 65
23 25 27 29 30 32 34 35 37 38 40 41 42 44 45 46 48 50 51 52 53 54 55 56 58 60 61 62 62 62 61 59 57 56 55 55 54 54 55 57 58 59 60 61 62 63 63 63 61 58 56 54 52 51 51 50 50 50 50 50 51 52 53 55 56 58 59 59 61 62 63 63 63 64 65 65 65 66 66 66 66 65 64 65 65 65 65
24 26 28 30 31 33 34 36 37 39 40 42 43 44 46 47 48 50 51 53 53 54 55 56 58 60 62 62 63 63 63 61 59 57 56 56 56 55 55 57 58 59 59 60 62 63 64 64 63 61 58 56 54 52 51 51 50 50 50 50 51 51 53 54 56 57 58 59 60 62 63 63 63 64 65 65 66 66 66 66 66 65 64 64 65 65 65
26 27 29 31 32 33 35 37 38 39 41 42 43 45 46 47 48 50 51 53 54 55 56 56 58 60 61 62 63 63 64 63 61 59 57 57 57 56 56 57 58 58 59 60 61 63 64 64 64 63 61 58 56 54 52 51 51 50 50 50 51 51 52 54 55 57 58 59 60 61 63 63 63 64 65 66 66 66 67 67 67 66 65 65 65 65 65
Wind_Direction
324 328 331 333 335 337 337 337 336 334 333 331 330 330 329 329 328 327 325 324 323 322 322 321 320 319 319 319 319 320 320 321 321 322 323 323 323 323 323 322 322 321 322 322 323 324 324 324 325 325 326 326 327 327 327 327 327 327 326 325 323 322 321 321 320 320 320 319 319 319 319 318 318 318 318 317 317 317 316 315 314 313 312 311 310 310 309
334 337 340 341 341 340 338 336 335 333 332 331 330 330 329 327 326 325 324 323 322 322 321 321 321 321 322 323 324 325 326 327 327 327 328 327 326 325 324 324 323 323 324 325 326 327 327 328 329 329 330 330 330 331 331 330 329 328 327 326 326 325 325 324 323 322 321 321 321 322 324 323 323 322 322 321 320 320 318 317 316 315 314 313 312 311 310
347 348 346 344 341 340 338 336 334 333 331 330 329 329 328 328 327 326 326 326 326 326 326 327 327 329 330 331 332 333 333 333 332 331 330 329 328 327 326 326 326 327 328 330 331 332 332 332 333 333 333 333 333 333 332 332 331 331 331 330 330 331 331 330 329 328 328 328 327 328 329 329 328 327 326 324 323 322 320 319 318 317 316 315 313 312 311
355 350 347 344 341 339 337 335 334 333 332 332 332 332 332 331 331 331 332 332 333 334 335 335 337 338 339 339 340 340 339 338 336 335 333 332 331 330 330 330 331 332 334 335 335 335 335 335 335 335 335 335 335 335 335 335 335 336 336 337 337 337 336 336 336 336 336 336 335 334 333 332 331 329 328 326 325 324 322 321 320 319 318 316 314 312 311
355 351 347 343 341 339 339 338 338 338 338 338 338 338 339 339 340 341 341 342 344 345 346 347 347 348 348 348 347 346 344 342 340 338 337 336 335 335 335 335 336 336 337 337 337 337 337 338 338 338 338 338 339 339 340 341 342 343 343 343 343 342 342 343 342 342 341 340 339 338 336 334 332 331 330 329 327 326 324 323 322 320 319 316 314 313 312
354 350 347 346 345 346 346 346 346 346 346 347 347 347 348 349 351 352 352 353 355 356 357 357 357 357 356 354 352 350 348 346 344 342 341 340 339 339 338 338 339 339 339 340 340 341 341 341 342 342 343 344 345 346 347 347 347 347 347 347 347 347 347 347 346 345 345 344 342 340 338 336 334 332 331 330 328 326 325 324 322 320 318 316 315 315 314
356 355 355 356 356 356 355 355 354 354 354 353 353 353 354 355 356 357 358 359 1 2 2 2 2 1 360 358 356 353 351 349 347 346 345 343 342 341 341 341 341 342 342 343 343 344 344 345 346 348 349 350 351 351 352 352 353 353 353 353 354 353 353 352 350 348 347 345 343 341 338 336 334 332 331 329 327 326 325 323 322 320 319 317 317 315 314
7 8 8 8 7 6 6 6 6 6 5 4 4 4 4 4 5 5 6 7 8 9 9 9 8 7 4 2 359 356 353 351 350 348 347 346 344 344 344 343 344 344 345 346 346 347 348 350 352 354 356 358 1 3 4 5 5 4 2 1 0 358 356 354 352 349 347 346 343 340 338 335 333 331 330 328 327 326 324 323 321 320 318 317 316 315 314
22 22 22 22 22 21 22 21 21 20 19 18 17 17 17 17 17 18 19 20 20 19 19 16 13 11 7 3 1 359 356 355 355 353 353 353 352 351 351 350 350 351 352 353 354 357 360 3 8 12 14 16 18 18 17 16 12 9 7 4 2 359 356 355 352 349 347 345 343 341 338 336 334 332 330 329 327 325 324 323 321 320 318 317 316 316 315
38 38 38 37 35 34 32 31 30 29 29 28 28 28 27 27 27 27 27 27 26 23 20 18 14 12 9 7 6 5 5 5 5 4 4 5 5 5 4 4 5 6 8 10 14 19 23 27 29 30 30 28 26 23 20 16 13 10 7 4 1 359 357 355 352 349 347 345 344 342 340 338 335 333 332 330 328 327 326 324 323 322 321 320 319 318 317
51 50 47 44 42 40 38 37 36 35 34 34 33 33 33 32 31 31 29 28 26 23 20 19 17 15 14 13 14 14 14 14 14 13 13 14 16 17 19 21 24 27 30 33 36 38 38 38 36 34 30 27 24 20 16 13 10 7 4 2 0 359 356 353 351 349 347 345 344 343 342 339 337 336 334 332 331 330 329 328 327 326 325 323 322 321 320
57 53 49 46 43 41 39 37 36 35 35 34 34 33 33 32 31 30 28 26 25 23 22 21 20 19 19 18 19 19 19 18 18 18 19 21 23 26 29 32 36 39 41 42 42 40 38 35 32 28 25 21 18 15 12 9 7 5 2 1 359 357 354 352 351 349 347 345 344 344 344 342 340 338 337 336 334 333 332 332 331 328 326 325 324 323 323
57 52 48 44 40 37 35 34 34 33 33 33 33 32 32 31 30 29 27 26 26 24 23 23 22 22 21 21 21 22 22 21 21 22 23 25 28 31 34 37 39 40 40 39 37 34 31 28 24 21 19 16 13 11 9 6 4 2 0 359 357 354 353 352 351 349 347 346 346 345 344 343 341 340 339 338 336 335 334 334 333 331 329 329 328 326 326
54 49 44 40 36 34 32 31 31 31 31 31 31 31 31 30 29 28 26 26 26 25 24 24 23 22 23 24 24 24 24 24 25 26 27 28 31 33 35 36 36 36 34 32 30 27 23 21 19 16 14 12 10 8 6 3 1 360 358 356 354 353 352 351 350 348 347 346 345 343 343 342 342 341 341 339 338 337 336 336 336 334 332 331 330 329 328
50 45 40 36 32 30 29 29 29 29 29 29 30 30 30 29 28 27 26 25 25 25 24 23 23 23 24 26 26 26 27 27 27 28 29 30 31 32 32 31 30 29 27 25 22 20 18 16 14 12 10 8 6 5 3 1 359 357 355 354 353 352 352 350 349 347 346 344 343 343 343 343 343 342 341 340 340 339 338 337 337 335 333 332 331 330 328
46 41 36 32 29 28 27 27 27 28 28 28 29 29 29 28 28 27 26 25 25 25 25 23 23 24 25 27 28 28 29 29 29 30 30 30 30 30 29 28 26 25 23 21 19 17 15 13 12 10 8 7 5 3 1 358 356 355 354 353 352 351 349 348 347 346 344 343 344 344 344 344 343 343 342 341 341 340 338 337 336 335 333 332 331 330 329
43 38 33 29 27 26 26 27 27 27 27 27 28 28 28 27 27 26 25 25 25 25 24 23 24 26 27 28 29 30 30 30 30 31 31 30 30 29 28 28 26 25 24 22 21 20 17 15 14 11 9 7 5 2 0 358 356 354 353 351 349 348 347 346 346 345 345 344 345 345 344 344 343 343 342 341 341 340 338 337 336 335 334 333 331 330 330
40 35 30 26 25 25 26 27 26 27 26 26 27 27 26 26 26 25 24 25 24 24 24 23 24 27 28 29 30 30 31 31 31 32 32 32 31 31 30 30 29 27 27 25 24 23 21 18 17 14 11 9 7 4 0 358 355 353 352 349 348 347 346 346 346 346 346 345 345 345 344 344 343 343 343 342 341 340 339 337 336 335 334 333 332 332 331
37 31 27 25 24 25 26 26 26 26 25 25 26 26 25 25 25 24 24 24 23 23 24 24 25 27 28 29 30 31 31 31 32 33 34 33 33 32 32 31 30 28 27 26 24 23 21 19 17 15 12 9 7 4 1 358 356 353 351 349 348 347 347 346 346 347 346 346 345 345 345 345 344 344 344 342 341 340 339 338 337 336 335 334 333 333 332
34 29 25 24 24 25 26 26 26 25 24 24 25 24 24 24 23 23 24 23 21 23 24 24 24 26 27 29 30 30 31 32 33 34 34 33 33 33 31 29 28 27 25 24 22 20 19 18 16 14 11 9 7 5 2 359 356 354 352 349 348 348 347 347 347 347 347 346 346 346 346 346 345 345 344 342 341 341 340 339 338 336 335 335 334 334 333
31 27 24 24 24 26 26 26 25 24 23 23 23 22 23 23 22 23 23 21 20 23 24 22 23 24 25 27 28 28 30 31 32 33 33 31 30 30 29 27 25 24 22 21 19 17 15 14 13 12 10 8 6 4 3 0 357 356 353 351 349 348 348 347 347 347 348 347 347 346 345 345 345 344 344 343 342 341 340 339 338 337 336 335 335 335 335
29 25 24 24 25 26 26 25 24 23 22 22 21 22 22 22 21 22 21 19 20 23 22 20 20 22 23 25 25 26 28 28 29 29 30 28 26 25 25 23 21 20 18 16 15 13 12 11 10 9 7 6 4 3 2 360 358 356 354 352 350 349 348 348 347 347 348 347 346 345 344 345 345 345 344 344 343 342 341 339 338 338 337 336 336 336 336
27 25 24 25 26 26 26 24 23 22 21 21 21 21 21 20 20 21 19 18 20 21 19 17 18 20 21 22 22 23 24 24 24 24 24 24 22 20 18 18 17 15 13 12 11 10 8 7 6 5 4 3 1 0 359 358 357 356 354 352 351 350 349 348 347 347 347 347 346 346 345 345 346 345 345 344 343 342 341 340 339 339 338 337 337 337 337
27 25 25 26 27 27 25 24 22 21 21 21 21 21 20 19 19 20 18 17 18 18 16 15 16 17 18 18 18 18 19 19 20 19 18 17 16 14 13 12 11 10 9 8 7 6 5 5 4 2 1 0 359 358 357 356 355 355 353 353 352 351 349 348 347 346 347 347 347 346 346 346 346 346 345 345 344 343 342 341 341 340 339 338 338 338 338
26 25 26 27 27 26 25 23 22 21 20 20 20 20 19 18 18 19 18 16 15 15 13 12 12 13 13 13 14 14 14 14 14 13 12 11 10 9 8 7 6 5 4 4 4 3 2 2 1 360 359 358 357 356 355 354 353 353 352 352 352 351 349 349 348 347 347 348 347 347 347 346 347 347 346 346 345 345 344 343 342 342 341 340 339 339 339
27 26 27 28 27 26 25 23 21 20 20 20 20 20 19 18 18 18 16 14 12 12 11 9 8 8 8 9 9 9 9 9 8 7 6 6 5 4 3 2 1 1 1 0 0 360 360 359 358 358 357 356 355 354 354 353 352 351 351 351 351 350 349 349 348 347 348 348 348 348 348 347 347 348 347 347 347 346 346 345 344 343 343 342 341 340 340
28 28 28 28 27 26 24 23 21 20 20 19 20 20 20 19 18 17 14 12 11 10 7 5 4 4 3 3 4 4 4 3 2 2 1 0 360 359 358 357 357 357 357 357 357 357 357 357 356 355 355 354 353 353 352 352 351 351 351 351 351 350 349 349 348 348 348 348 348 348 349 349 348 349 349 349 348 348 348 347 346 346 345 344 343 342 341
29 29 29 28 27 26 24 23 21 21 20 20 19 20 20 19 18 16 13 10 9 7 5 2 0 360 359 358 358 358 358 357 357 357 356 355 354 354 354 354 353 353 353 354 353 353 354 354 354 353 353 353 352 352 352 351 350 350 351 350 350 350 349 349 348 348 348 348 348 348 349 349 349 349 349 350 350 350 350 349 348 348 347 346 345 344 344
31 30 29 28 27 26 24 23 22 21 21 20 20 20 20 18 17 15 12 9 8 5 3 0 358 356 355 354 353 352 352 352 351 351 351 351 350 350 350 350 350 350 350 350 350 350 351 352 352 351 351 351 351 351 351 350 350 350 350 350 350 350 349 349 349 348 348 349 348 349 349 349 349 349 350 350 351 351 351 351 350 350 349 348 347 347 346
31 30 29 28 28 26 24 23 22 22 21 21 20 21 20 18 17 15 12 9 6 4 2 360 356 353 351 351 350 348 347 348 347 346 346 347 346 346 346 346 347 347 347 348 348 348 349 350 350 349 350 350 350 350 350 350 350 350 350 350 349 349 349 349 349 348 349 349 349 349 349 349 349 350 350 351 351 352 353 353 352 351 351 350 349 349 349
32 31 29 28 27 26 25 24 23 22 22 22 21 21 20 19 17 15 12 10 7 4 1 358 356 353 350 348 348 346 344 344 344 343 342 343 343 343 343 343 343 344 344 345 346 346 347 347 348 348 348 348 348 348 349 349 349 349 349 349 349 349 349 349 349 349 349 349 349 349 349 349 349 350 350 351 351 352 353 354 354 353 352 352 351 351 351
32 30 29 28 27 26 25 24 23 22 22 22 22 21 20 19 17 16 13 11 7 4 1 358 355 353 350 348 347 345 342 341 340 340 339 340 340 340 340 340 341 341 342 342 343 344 345 345 345 346 346 346 347 347 347 348 348 349 349 349 349 349 349 349 349 349 349 349 350 350 350 350 349 350 350 351 351 352 353 354 355 354 354 353 352 352 352
32 30 29 28 27 26 25 24 23 23 23 22 22 21 20 19 18 16 14 12 9 5 2 359 355 352 350 348 346 344 342 340 339 338 337 337 338 338 338 338 338 339 339 340 341 342 342 342 343 344 344 345 345 346 346 347 347 348 348 348 348 348 348 349 349 349 349 349 349 350 350 350 350 349 350 350 351 351 353 354 355 355 355 354 354 353 353
31 30 29 28 27 26 25 24 23 23 22 22 21 21 20 19 18 16 14 13 10 7 4 0 356 353 351 347 345 343 342 340 339 338 337 336 337 337 337 337 337 337 337 338 339 339 340 340 341 341 342 343 343 344 345 345 346 347 347 348 348 348 348 349 349 349 349 349 350 350 350 350 350 349 349 350 350 351 352 354 355 355 355 355 355 354 354
31 29 29 28 27 27 26 25 24 23 22 21 21 20 19 18 17 16 14 13 10 8 6 3 359 356 353 349 346 344 342 340 339 338 337 336 336 336 336 336 337 337 336 337 338 338 338 339 339 339 340 341 342 343 344 344 345 346 347 347 347 348 348 348 349 349 349 349 350 350 350 350 350 350 349 349 349 350 351 353 354 355 355 356 355 355 354
29 28 28 27 27 26 26 25 24 23 23 22 21 20 18 18 17 15 14 12 10 8 6 4 1 359 355 352 350 347 343 342 340 338 337 337 336 336 336 335 336 336 336 336 336 337 337 337 337 338 339 340 341 342 342 343 344 345 346 346 347 347 348 348 349 349 349 349 349 350 350 350 350 350 349 349 349 349 350 351 353 354 355 356 356 356 355
27 26 26 25 25 25 25 24 23 23 22 22 21 20 18 18 17 15 14 13 10 8 6 3 1 359 357 356 354 352 348 345 343 340 339 338 337 336 336 335 335 336 335 334 335 335 335 335 336 336 337 339 340 341 341 342 343 344 345 346 346 347 347 348 348 349 349 349 349 349 350 350 350 350 350 349 349 349 349 351 352 353 355 356 356 356 356
24 23 23 23 22 22 23 22 21 21 21 20 20 20 19 17 16 16 15 13 11 9 6 4 1 359 358 357 357 355 353 350 348 345 343 341 339 338 337 336 336 336 334 333 333 334 333 334 335 336 337 338 339 340 341 341 342 344 344 345 346 346 347 347 348 348 349 349 349 349 349 350 350 350 350 349 349 349 349 350 351 352 354 355 355 356 357
21 20 19 20 19 19 19 19 18 18 19 18 18 18 18 17 16 15 14 13 12 10 8 6 3 0 358 358 358 356 355 354 353 351 349 347 345 343 341 340 339 337 335 333 332 332 332 333 334 335 336 338 339 339 340 341 342 343 344 345 345 346 346 346 347 348 348 349 349 349 349 350 350 350 350 349 349 349 349 350 351 352 353 354 355 356 357
17 16 15 15 15 15 16 16 15 15 16 15 15 15 15 15 15 14 13 12 11 10 9 7 5 2 360 358 358 356 355 355 355 354 353 352 351 349 348 345 343 341 339 335 334 334 333 333 333 334 336 337 338 339 340 340 341 342 343 344 345 345 345 346 347 348 348 349 349 349 349 349 350 350 350 350 349 349 349 349 350 351 352 353 354 355 356
12 11 10 10 11 11 12 12 12 12 12 12 12 12 12 12 12 12 12 11 11 10 9 7 6 4 1 359 358 356 355 356 356 355 355 355 354 353 352 350 348 346 344 341 339 338 337 335 335 335 336 337 338 339 339 340 341 342 343 344 344 344 345 345 346 347 348 348 348 349 349 349 349 350 350 350 350 349 349 349 350 351 352 353 354 355 356
6 6 6 5 6 7 7 8 9 9 9 9 9 9 9 9 9 9 10 10 9 9 8 7 6 4 2 360 358 356 355 355 355 355 356 356 356 355 354 353 351 350 349 346 344 342 340 339 338 338 338 338 338 339 339 340 341 341 342 343 344 344 344 345 346 347 348 348 348 349 349 349 349 350 350 350 350 350 350 349 349 350 352 353 354 355 356
1 2 1 1 1 3 4 4 5 5 5 6 6 6 6 6 6 7 7 7 7 7 7 6 5 4 2 0 359 357 355 354 354 354 355 356 356 355 355 354 354 353 352 350 347 345 343 342 340 340 339 339 339 339 339 340 340 341 342 343 343 343 344 344 345 346 348 348 348 349 349 349 349 350 350 350 350 350 350 350 349 350 351 352 354 355 356
356 357 357 357 358 359 0 1 1 2 3 3 3 3 3 3 3 4 5 5 5 5 5 5 4 3 2 1 359 357 355 354 353 353 354 355 355 355 355 355 355 354 354 352 350 348 346 344 342 340 340 339 339 339 339 339 340 341 341 342 343 343 343 344 345 346 347 348 348 349 349 349 349 349 350 350 350 350 350 350 350 350 351 352 353 354 356
353 353 354 354 355 356 357 358 359 360 0 1 1 1 1 1 1 1 2 2 3 3 4 3 3 2 2 1 359 357 355 353 352 352 353 354 354 354 354 354 354 354 355 354 352 350 348 345 343 341 341 340 340 339 339 339 340 341 341 341 342 342 342 343 344 346 347 348 348 348 348 349 349 349 350 350 350 351 351 350 350 350 350 351 353 354 355
349 350 351 352 353 353 354 355 356 357 358 358 358 359 359 359 358 359 359 360 0 1 1 2 2 1 1 0 359 357 355 353 352 351 352 352 353 353 353 353 353 354 354 354 353 352 350 347 344 342 341 340 340 339 339 339 339 340 340 341 341 342 342 343 344 345 346 347 348 348 348 348 349 349 349 350 350 351 351 351 350 350 350 351 352 353 354
348 348 349 350 351 351 352 353 354 355 356 356 356 356 357 357 356 357 357 357 358 358 359 360 0 360 360 360 359 357 355 354 352 351 350 351 351 352 352 352 352 352 353 354 354 353 351 348 346 344 342 341 340 339 339 339 339 340 340 340 341 341 341 342 343 345 346 346 347 348 348 348 349 349 349 350 350 351 351 351 350 350 349 350 351 353 354
346 346 347 348 349 349 350 351 351 352 353 353 353 354 354 354 354 355 355 355 355 356 357 358 358 358 359 358 358 357 356 354 352 351 350 349 350 351 351 351 351 351 352 352 353 352 351 350 347 345 343 341 340 339 339 339 339 339 340 340 340 341 341 342 343 344 345 346 347 348 348 348 348 349 349 349 350 351 351 351 351 350 349 349 350 352 353
343 343 344 345 346 347 347 348 349 349 350 350 351 351 351 352 352 353 353 353 353 354 354 355 356 357 357 357 357 357 356 354 352 351 349 348 348 349 350 349 349 350 350 351 352 352 352 351 349 346 344 342 341 340 339 339 339 339 339 339 340 340 341 341 342 344 345 346 346 347 348 348 348 349 349 349 349 350 351 351 351 350 350 349 350 351 352
338 338 339 340 342 343 344 345 346 347 347 347 348 349 349 349 350 351 351 352 351 351 352 353 354 355 355 355 355 356 356 355 353 351 349 347 347 348 348 348 348 348 349 350 351 351 351 351 350 347 345 343 342 340 340 339 339 339 339 339 339 340 340 341 342 343 344 345 346 347 347 348 348 348 349 349 349 350 350 351 351 351 350 349 349 350 351
332 333 334 336 337 339 340 341 342 343 344 344 345 346 346 347 348 349 349 350 350 350 350 351 352 353 354 354 354 354 355 354 353 351 349 347 346 346 346 346 346 347 347 348 349 349 350 351 350 348 346 344 342 341 340 339 338 338 338 338 339 340 340 341 341 342 344 345 345 346 347 348 348 348 348 349 349 349 350 351 351 351 350 349 349 349 350
326 327 329 331 333 335 336 338 339 340 341 342 343 343 344 345 345 346 347 348 348 348 348 349 350 351 352 352 353 353 353 353 353 351 349 347 346 345 345 345 345 345 346 347 348 348 349 350 350 349 347 345 343 342 341 339 338 338 338 338 339 339 340 340 341 342 343 344 345 345 346 347 348 348 348 348 349 349 350 350 351 351 351 350 348 348 349
Height
5781 5780 5779 5777 5776 5775 5774 5773 5771 5770 5768 5766 5765 5763 5761 5759 5757 5755 5753 5751 5750 5748 5746 5744 5742 5740 5739 5737 5735 5732 5730 5728 5726 5724 5721 5719 5716 5714 5711 5709 5706 5704 5701 5698 5696 5693 5691 5688 5685 5683 5680 5677 5675 5672 5669 5667 5664 5661 5659 5656 5653 5650 5647 5645 5642 5639 5637 5634 5631 5628 5625 5622 5620 5616 5613 5610 5607 5604 5602 5599 5596 5594 5591 5587 5583 5580 5578
5780 5779 5778 5777 5776 5775 5774 5772 5770 5769 5767 5765 5763 5761 5759 5757 5755 5753 5751 5749 5748 5746 5744 5742 5740 5738 5736 5734 5732 5730 5728 5726 5724 5721 5719 5717 5714 5712 5709 5706 5704 5701 5699 5696 5693 5691 5688 5685 5682 5680 5677 5674 5672 5669 5667 5664 5661 5658 5655 5653 5650 5647 5644 5641 5639 5636 5634 5631 5629 5626 5623 5620 5617 5614 5611 5608 5605 5602 5599 5596 5592 5590 5587 5583 5579 5576 5572
5780 5779 5779 5777 5776 5775 5773 5771 5769 5767 5765 5763 5761 5759 5757 5755 5753 5751 5749 5747 5745 5744 5742 5740 5738 5736 5734 5732 5730 5728 5726 5724 5722 5719 5717 5714 5712 5709 5707 5704 5701 5699 5696 5694 5691 5688 5685 5682 5680 5677 5674 5672 5669 5667 5664 5661 5658 5655 5653 5650 5647 5644 5641 5638 5635 5632 5629 5626 5624 5622 5620 5617 5614 5611 5608 5605 5602 5598 5595 5592 5589 5585 5583 5579 5575 5571 5568
5781 5780 5778 5777 5776 5774 5772 5770 5768 5766 5764 5762 5760 5758 5755 5753 5751 5749 5747 5745 5744 5742 5740 5738 5736 5734 5732 5730 5729 5726 5724 5722 5720 5717 5715 5712 5710 5707 5705 5702 5699 5697 5694 5692 5689 5686 5683 5680 5677 5674 5672 5669 5667 5664 5661 5659 5656 5653 5650 5648 5645 5642 5639 5636 5633 5630 5627 5624 5621 5618 5616 5613 5610 5607 5604 5601 5598 5595 5592 5589 5585 5582 5579 5575 5571 5567 5563
5781 5779 5778 5777 5775 5773 5771 5769 5767 5765 5763 5760 5758 5756 5754 5752 5750 5748 5746 5744 5742 5740 5739 5737 5735 5733 5731 5729 5727 5725 5723 5721 5718 5716 5713 5711 5708 5706 5703 5700 5698 5695 5693 5690 5687 5684 5681 5678 5675 5673 5670 5667 5665 5662 5659 5657 5654 5652 5649 5646 5644 5641 5638 5635 5632 5629 5626 5623 5620 5617 5614 5611 5607 5604 5601 5598 5595 5592 5588 5585 5581 5577 5574 5571 5567 5563 5559
5781 5779 5778 5776 5774 5772 5770 5768 5766 5764 5762 5760 5757 5755 5753 5751 5749 5747 5745 5743 5741 5740 5738 5736 5734 5732 5730 5728 5726 5724 5722 5719 5717 5715 5712 5710 5707 5704 5701 5699 5696 5693 5691 5688 5685 5682 5679 5677 5674 5671 5668 5666 5663 5660 5658 5655 5653 5650 5647 5645 5642 5639 5636 5634 5631 5628 5625 5622 5619 5615 5612 5608 5605 5602 5599 5595 5592 5588 5585 5581 5577 5573 5569 5565 5561 5557 5553
5780 5779 5777 5775 5774 5772 5770 5768 5766 5763 5761 5759 5757 5755 5753 5751 5749 5747 5745 5743 5741 5739 5737 5735 5734 5732 5730 5728 5725 5723 5721 5719 5716 5714 5711 5708 5705 5702 5700 5697 5694 5691 5688 5686 5683 5680 5678 5675 5672 5670 5667 5664 5662 5659 5657 5654 5651 5649 5646 5643 5640 5638 5635 5632 5629 5626 5623 5620 5617 5613 5610 5606 5602 5599 5596 5592 5588 5585 5581 5577 5573 5569 5564 5559 5556 5552 5547
5780 5779 5777 5776 5774 5772 5770 5768 5766 5763 5761 5759 5756 5754 5752 5750 5748 5746 5745 5743 5741 5739 5737 5735 5733 5731 5729 5727 5725 5723 5720 5718 5715 5712 5710 5707 5703 5701 5698 5695 5692 5689 5686 5683 5681 5678 5675 5673 5670 5668 5666 5663 5661 5658 5656 5653 5650 5648 5645 5642 5640 5637 5634 5631 5628 5624 5621 5618 5614 5611 5607 5603 5599 5596 5592 5588 5584 5580 5576 5572 5569 5565 5560 5555 5551 5547 5542
5781 5780 5778 5777 5775 5772 5770 5768 5766 5763 5761 5759 5757 5755 5752 5750 5748 5747 5745 5743 5741 5739 5737 5735 5733 5731 5729 5727 5725 5722 5720 5717 5714 5711 5708 5705 5702 5699 5696 5693 5690 5687 5684 5682 5679 5676 5674 5672 5669 5667 5665 5663 5660 5658 5655 5653 5650 5647 5645 5642 5639 5636 5633 5630 5626 5623 5619 5616 5612 5609 5605 5601 5597 5593 5589 5585 5581 5577 5572 5568 5563 5559 5555 5551 5547 5542 5537
5782 5781 5779 5777 5775 5773 5771 5769 5767 5764 5762 5760 5758 5755 5753 5751 5749 5747 5745 5744 5742 5740 5738 5736 5734 5731 5729 5727 5724 5722 5719 5716 5713 5710 5707 5703 5700 5697 5694 5691 5689 5686 5683 5681 5679 5676 5674 5672 5670 5667 5665 5663 5660 5658 5655 5653 5650 5647 5644 5641 5638 5635 5631 5628 5624 5621 5617 5613 5609 5605 5601 5597 5593 5589 5585 5581 5577 5573 5569 5564 5559 5554 5549 5545 5540 5535 5531
5783 5782 5780 5778 5776 5774 5772 5770 5768 5766 5763 5761 5759 5756 5754 5752 5750 5748 5746 5744 5742 5740 5738 5736 5734 5731 5729 5726 5723 5721 5718 5715 5712 5709 5706 5703 5700 5697 5694 5691 5689 5686 5684 5682 5679 5677 5675 5673 5671 5668 5666 5663 5661 5658 5655 5652 5649 5646 5643 5639 5636 5632 5629 5625 5622 5618 5614 5610 5606 5602 5598 5593 5589 5585 5581 5576 5572 5568 5564 5560 5555 5549 5544 5539 5534 5529 5524
5785 5783 5781 5780 5778 5776 5774 5771 5769 5767 5764 5762 5760 5758 5755 5753 5751 5749 5747 5745 5743 5741 5738 5736 5734 5731 5728 5726 5723 5720 5717 5714 5712 5709 5706 5703 5700 5697 5695 5692 5690 5688 5686 5683 5681 5679 5677 5674 5672 5669 5667 5664 5661 5658 5655 5652 5648 5645 5641 5638 5634 5631 5627 5624 5619 5615 5611 5606 5602 5597 5593 5588 5584 5579 5575 5571 5567 5563 5559 5555 5550 5544 5539 5534 5528 5522 5517
5786 5784 5783 5781 5779 5777 5775 5772 5770 5768 5765 5763 5761 5758 5756 5754 5752 5750 5748 5746 5743 5741 5738 5736 5733 5731 5728 5726 5723 5720 5718 5715 5712 5709 5706 5703 5700 5698 5696 5693 5692 5689 5687 5685 5682 5680 5678 5675 5672 5670 5667 5664 5661 5658 5654 5651 5648 5644 5640 5637 5633 5630 5626 5621 5616 5612 5607 5602 5597 5592 5588 5584 5580 5576 5571 5566 5562 5557 5554 5550 5546 5539 5533 5527 5521 5515 5510
5787 5785 5784 5782 5780 5778 5775 5773 5771 5768 5766 5764 5762 5759 5757 5755 5753 5750 5748 5746 5743 5741 5738 5736 5734 5731 5729 5726 5723 5721 5718 5715 5712 5709 5707 5704 5702 5699 5697 5695 5693 5691 5688 5686 5684 5681 5678 5676 5673 5670 5667 5664 5661 5657 5654 5651 5647 5643 5639 5636 5632 5628 5623 5618 5613 5609 5604 5600 5596 5591 5586 5581 5576 5571 5566 5561 5556 5551 5546 5543 5539 5532 5526 5521 5515 5509 5503
5788 5787 5785 5783 5781 5778 5776 5774 5771 5769 5767 5765 5762 5760 5758 5756 5753 5751 5749 5746 5744 5741 5739 5737 5734 5732 5729 5727 5724 5721 5718 5715 5713 5710 5708 5705 5703 5701 5699 5696 5694 5691 5689 5687 5684 5681 5679 5676 5673 5670 5667 5664 5660 5657 5653 5649 5646 5642 5638 5634 5629 5625 5620 5616 5611 5606 5602 5598 5594 5589 5584 5578 5572 5567 5561 5556 5551 5545 5540 5535 5531 5526 5520 5514 5508 5502 5497
5789 5788 5786 5784 5781 5779 5777 5774 5772 5770 5768 5765 5763 5761 5758 5756 5754 5751 5749 5747 5745 5742 5740 5737 5735 5732 5730 5727 5725 5722 5719 5716 5714 5711 5709 5706 5704 5702 5700 5697 5695 5692 5690 5687 5684 5682 5679 5676 5673 5670 5666 5663 5659 5656 5652 5648 5644 5640 5636 5631 5627 5623 5619 5615 5611 5606 5601 5596 5590 5583 5578 5573 5568 5563 5557 5552 5546 5541 5535 5530 5526 5521 5514 5508 5502 5496 5490
5790 5788 5787 5784 5782 5780 5777 5775 5773 5770 5768 5766 5764 5761 5759 5756 5754 5752 5750 5748 5745 5743 5740 5738 5736 5733 5730 5727 5725 5722 5720 5718 5715 5712 5710 5708 5705 5703 5701 5698 5695 5693 5690 5687 5685 5682 5678 5676 5673 5669 5666 5662 5659 5655 5652 5648 5644 5640 5636 5632 5628 5623 5619 5615 5610 5605 5599 5593 5587 5581 5575 5570 5565 5559 5554 5548 5543 5538 5531 5525 5520 5515 5509 5503 5496 5490 5484
5791 5789 5787 5785 5783 5780 5778 5776 5773 5771 5769 5766 5764 5762 5759 5757 5755 5753 5750 5748 5746 5743 5741 5739 5736 5733 5731 5728 5726 5723 5721 5719 5716 5714 5711 5709 5706 5704 5701 5698 5696 5693 5690 5688 5685 5682 5679 5676 5672 5669 5665 5662 5658 5654 5650 5646 5642 5638 5634 5630 5626 5622 5617 5612 5607 5602 5596 5590 5585 5580 5574 5568 5562 5557 5551 5545 5539 5534 5528 5521 5515 5509 5503 5497 5491 5484 5478
5792 5790 5788 5786 5783 5781 5778 5776 5774 5771 5769 5767 5764 5762 5760 5758 5756 5753 5751 5748 5747 5744 5742 5739 5737 5734 5732 5729 5727 5725 5722 5720 5717 5715 5712 5710 5707 5704 5702 5699 5696 5694 5691 5688 5685 5682 5679 5676 5672 5668 5665 5661 5657 5653 5649 5645 5640 5636 5631 5627 5622 5617 5613 5608 5603 5598 5592 5587 5582 5577 5571 5565 5559 5552 5547 5541 5535 5529 5524 5517 5510 5504 5498 5492 5486 5479 5473
5792 5791 5788 5786 5784 5782 5779 5777 5774 5772 5770 5767 5765 5763 5761 5758 5756 5754 5751 5749 5748 5745 5742 5740 5738 5735 5733 5730 5728 5725 5723 5720 5718 5715 5713 5710 5708 5705 5702 5699 5697 5694 5691 5688 5685 5682 5678 5675 5671 5668 5664 5660 5656 5652 5648 5643 5638 5634 5629 5624 5619 5614 5609 5604 5599 5594 5588 5582 5576 5570 5564 5559 5554 5548 5543 5537 5531 5525 5519 5513 5506 5500 5493 5487 5481 5474 5467
5793 5791 5789 5787 5785 5782 5780 5777 5775 5773 5770 5768 5766 5764 5761 5758 5756 5754 5752 5750 5748 5745 5743 5741 5738 5736 5733 5731 5729 5726 5724 5721 5719 5716 5714 5711 5708 5705 5703 5700 5697 5694 5691 5688 5685 5681 5678 5674 5671 5667 5663 5659 5655 5650 5646 5641 5636 5632 5627 5622 5616 5611 5605 5600 5594 5589 5583 5577 5571 5565 5560 5555 5550 5545 5539 5533 5527 5521 5514 5508 5502 5496 5489 5482 5475 5469 5461
5794 5792 5790 5787 5785 5783 5781 5778 5776 5774 5771 5768 5766 5763 5761 5759 5757 5755 5753 5751 5748 5745 5744 5742 5739 5737 5734 5732 5729 5727 5724 5722 5719 5717 5714 5711 5708 5706 5703 5700 5697 5694 5691 5688 5684 5681 5677 5674 5670 5665 5661 5657 5653 5648 5644 5639 5634 5629 5624 5619 5614 5608 5603 5598 5592 5587 5582 5576 5571 5566 5560 5553 5548 5542 5535 5529 5523 5517 5511 5504 5498 5491 5484 5477 5471 5464 5457
5795 5793 5790 5788 5786 5784 5781 5779 5777 5774 5772 5769 5766 5764 5762 5760 5758 5755 5753 5751 5748 5746 5744 5742 5739 5737 5734 5732 5730 5727 5725 5722 5720 5717 5714 5712 5709 5706 5703 5700 5697 5694 5691 5687 5684 5680 5676 5673 5668 5664 5660 5656 5651 5647 5642 5637 5632 5627 5622 5617 5612 5607 5602 5597 5591 5586 5582 5576 5570 5564 5557 5551 5545 5539 5533 5527 5521 5514 5508 5501 5494 5487 5480 5473 5466 5459 5452
5795 5793 5791 5789 5787 5785 5782 5780 5777 5775 5772 5770 5767 5765 5763 5761 5758 5756 5753 5751 5749 5747 5745 5742 5740 5737 5735 5732 5730 5727 5725 5722 5720 5717 5714 5712 5709 5706 5703 5700 5696 5693 5690 5686 5683 5679 5675 5671 5667 5663 5658 5654 5649 5644 5640 5635 5630 5625 5620 5615 5610 5605 5600 5595 5590 5584 5579 5573 5567 5561 5555 5549 5543 5537 5531 5525 5519 5512 5505 5497 5490 5483 5476 5469 5461 5454 5447
5796 5794 5792 5790 5787 5785 5783 5781 5778 5775 5773 5770 5768 5766 5763 5761 5758 5756 5754 5752 5749 5747 5745 5742 5740 5737 5735 5733 5730 5728 5725 5722 5720 5717 5714 5711 5709 5705 5702 5699 5696 5693 5689 5686 5682 5678 5674 5670 5665 5661 5657 5652 5647 5643 5638 5633 5628 5623 5618 5613 5608 5603 5598 5593 5587 5582 5576 5571 5565 5559 5553 5546 5540 5534 5528 5522 5515 5509 5501 5494 5486 5479 5472 5464 5457 5450 5443
5796 5794 5792 5790 5788 5786 5784 5781 5779 5776 5773 5771 5769 5766 5764 5761 5759 5756 5754 5752 5750 5747 5745 5742 5740 5738 5735 5733 5730 5727 5725 5722 5720 5717 5714 5711 5708 5705 5702 5699 5695 5692 5688 5684 5680 5677 5672 5668 5664 5660 5655 5651 5646 5641 5636 5631 5626 5621 5616 5611 5606 5600 5595 5590 5585 5579 5574 5568 5563 5557 5551 5545 5538 5532 5526 5519 5512 5504 5497 5489 5482 5475 5467 5460 5452 5445 5438
5797 5795 5793 5791 5789 5787 5784 5782 5780 5777 5774 5772 5769 5767 5764 5762 5759 5756 5754 5752 5750 5747 5745 5743 5740 5738 5735 5733 5730 5727 5725 5722 5719 5716 5713 5711 5708 5704 5701 5698 5694 5691 5687 5683 5679 5675 5671 5667 5662 5658 5654 5649 5644 5639 5635 5629 5624 5619 5614 5608 5603 5597 5592 5586 5581 5576 5570 5564 5558 5552 5547 5541 5534 5528 5521 5515 5508 5500 5493 5485 5478 5470 5463 5456 5448 5441 5433
5798 5796 5794 5791 5789 5787 5785 5783 5781 5778 5775 5772 5770 5767 5764 5761 5759 5756 5754 5752 5750 5747 5745 5743 5740 5738 5735 5732 5730 5727 5724 5722 5719 5716 5713 5710 5707 5703 5700 5697 5693 5689 5686 5682 5678 5674 5670 5665 5661 5657 5652 5648 5643 5638 5633 5628 5622 5617 5612 5606 5600 5595 5589 5583 5577 5572 5566 5560 5554 5548 5542 5536 5530 5524 5518 5511 5504 5497 5489 5481 5474 5466 5459 5452 5444 5437 5430
5798 5796 5794 5792 5790 5788 5786 5784 5781 5779 5776 5773 5770 5767 5764 5761 5759 5757 5755 5752 5750 5747 5745 5742 5740 5737 5735 5732 5729 5726 5724 5721 5718 5715 5712 5709 5706 5702 5699 5695 5692 5688 5684 5680 5676 5672 5668 5664 5660 5655 5650 5646 5641 5636 5631 5626 5620 5615 5609 5604 5599 5593 5587 5581 5575 5570 5564 5558 5551 5545 5539 5533 5527 5521 5514 5507 5501 5493 5486 5478 5471 5463 5456 5448 5441 5433 5426
5799 5797 5795 5793 5791 5789 5787 5784 5782 5779 5776 5774 5771 5768 5765 5762 5760 5757 5755 5753 5750 5748 5745 5742 5740 5737 5734 5732 5729 5726 5723 5720 5717 5714 5711 5708 5705 5701 5698 5694 5690 5687 5683 5679 5675 5671 5666 5662 5657 5653 5648 5644 5639 5634 5629 5624 5619 5613 5608 5602 5597 5591 5585 5580 5574 5568 5562 5556 5550 5543 5537 5531 5524 5518 5511 5504 5498 5491 5483 5476 5468 5460 5453 5445 5437 5430 5423
5799 5797 5795 5793 5791 5789 5787 5785 5782 5780 5778 5775 5772 5769 5766 5763 5761 5758 5755 5753 5750 5747 5744 5742 5739 5737 5734 5731 5728 5725 5722 5719 5716 5713 5710 5707 5703 5700 5696 5693 5689 5685 5681 5677 5673 5668 5664 5660 5655 5651 5646 5641 5636 5631 5626 5621 5616 5611 5605 5600 5595 5589 5583 5577 5571 5565 5559 5554 5548 5541 5534 5527 5521 5515 5509 5502 5496 5489 5481 5474 5466 5458 5450 5442 5434 5427 5420
5800 5798 5796 5794 5792 5790 5788 5786 5783 5781 5778 5775 5772 5770 5767 5764 5761 5758 5755 5753 5750 5747 5744 5741 5739 5736 5733 5730 5727 5724 5721 5718 5715 5712 5709 5705 5702 5698 5695 5691 5687 5683 5679 5675 5671 5666 5662 5657 5653 5648 5644 5639 5634 5629 5624 5618 5613 5608 5603 5597 5592 5586 5580 5575 5569 5563 5557 5551 5545 5539 5532 5525 5518 5512 5506 5500 5493 5486 5479 5471 5463 5455 5447 5439 5431 5424 5417
5801 5799 5797 5795 5793 5791 5789 5786 5784 5781 5778 5776 5773 5770 5768 5765 5762 5759 5755 5752 5749 5746 5744 5741 5738 5735 5732 5729 5726 5723 5720 5717 5714 5710 5707 5704 5700 5697 5693 5689 5685 5681 5677 5673 5669 5664 5660 5655 5651 5646 5641 5636 5632 5627 5621 5616 5611 5606 5600 5595 5589 5583 5578 5572 5566 5560 5554 5547 5541 5535 5528 5522 5515 5509 5502 5496 5490 5483 5476 5468 5460 5452 5444 5436 5429 5421 5414
5801 5799 5798 5795 5793 5791 5789 5787 5784 5782 5779 5776 5774 5771 5768 5765 5762 5759 5756 5753 5749 5746 5743 5740 5737 5734 5731 5728 5725 5722 5719 5715 5712 5709 5705 5702 5698 5695 5691 5687 5683 5679 5675 5670 5666 5662 5657 5653 5648 5643 5639 5634 5629 5624 5619 5613 5608 5603 5597 5592 5586 5581 5575 5569 5562 5556 5550 5544 5538 5531 5525 5518 5512 5506 5499 5493 5487 5480 5473 5465 5458 5450 5441 5434 5426 5418 5410
5802 5800 5798 5796 5794 5792 5790 5787 5785 5782 5780 5777 5774 5771 5768 5765 5762 5759 5756 5752 5749 5746 5743 5740 5736 5733 5730 5726 5723 5720 5717 5714 5710 5707 5703 5700 5696 5693 5689 5685 5681 5677 5672 5668 5664 5659 5655 5650 5645 5641 5636 5631 5626 5621 5615 5610 5605 5600 5594 5589 5584 5578 5572 5566 5560 5554 5547 5541 5535 5529 5522 5516 5510 5503 5496 5490 5484 5477 5470 5463 5456 5448 5439 5431 5423 5415 5407
5803 5801 5799 5797 5795 5793 5790 5788 5785 5783 5780 5777 5774 5771 5768 5765 5762 5759 5755 5752 5748 5745 5742 5739 5735 5732 5728 5725 5722 5718 5715 5711 5708 5704 5701 5697 5694 5690 5686 5683 5679 5675 5670 5665 5661 5657 5652 5648 5643 5638 5633 5629 5623 5618 5613 5608 5602 5597 5592 5586 5581 5575 5569 5564 5558 5551 5545 5539 5533 5527 5520 5514 5507 5500 5494 5487 5481 5474 5467 5460 5453 5446 5438 5429 5421 5413 5405
5803 5801 5799 5797 5795 5793 5791 5788 5786 5783 5780 5777 5775 5772 5768 5765 5762 5758 5755 5751 5748 5744 5741 5738 5734 5731 5727 5724 5720 5717 5713 5709 5706 5702 5699 5695 5691 5688 5684 5680 5676 5672 5668 5663 5658 5654 5650 5645 5640 5635 5631 5626 5621 5615 5610 5605 5600 5595 5589 5583 5578 5572 5567 5561 5555 5549 5543 5537 5531 5524 5518 5511 5505 5498 5491 5485 5478 5472 5465 5458 5451 5444 5436 5428 5420 5413 5405
5803 5802 5800 5798 5796 5794 5791 5789 5786 5783 5781 5778 5775 5772 5769 5765 5762 5759 5755 5752 5748 5745 5741 5737 5734 5730 5726 5723 5719 5715 5711 5708 5704 5700 5697 5693 5689 5685 5681 5677 5673 5669 5665 5660 5655 5651 5647 5642 5638 5633 5628 5623 5618 5613 5608 5602 5597 5592 5587 5581 5575 5570 5564 5558 5553 5547 5541 5535 5529 5523 5516 5510 5503 5496 5489 5483 5476 5470 5463 5456 5449 5442 5435 5428 5420 5413 5405
5804 5802 5800 5798 5796 5794 5791 5789 5786 5784 5781 5778 5775 5772 5769 5766 5762 5759 5756 5752 5749 5745 5741 5737 5733 5729 5725 5722 5718 5714 5710 5706 5703 5698 5694 5691 5687 5683 5679 5674 5670 5666 5662 5657 5653 5648 5644 5639 5635 5630 5625 5621 5615 5610 5605 5600 5594 5589 5584 5578 5573 5567 5562 5556 5550 5544 5538 5533 5526 5520 5514 5508 5501 5494 5487 5480 5474 5467 5461 5454 5448 5441 5434 5426 5419 5411 5404
5803 5802 5800 5798 5796 5794 5792 5789 5786 5784 5781 5778 5775 5772 5769 5766 5762 5759 5756 5752 5748 5744 5740 5736 5732 5728 5724 5721 5717 5713 5709 5705 5701 5697 5693 5689 5685 5680 5676 5672 5667 5663 5659 5654 5650 5645 5640 5636 5632 5627 5622 5618 5613 5607 5602 5597 5592 5586 5581 5576 5571 5565 5560 5554 5548 5542 5536 5530 5524 5517 5511 5505 5498 5492 5485 5478 5471 5465 5458 5452 5446 5439 5432 5425 5417 5410 5402
5803 5802 5800 5798 5796 5794 5791 5789 5786 5783 5781 5778 5775 5772 5768 5765 5762 5759 5755 5751 5747 5743 5739 5735 5731 5727 5723 5719 5715 5711 5708 5704 5700 5696 5692 5688 5683 5679 5674 5670 5665 5661 5656 5651 5647 5642 5637 5633 5628 5624 5619 5614 5609 5604 5599 5594 5589 5584 5579 5573 5568 5563 5557 5551 5546 5540 5534 5528 5521 5515 5509 5502 5496 5489 5483 5476 5469 5463 5456 5449 5443 5436 5430 5422 5415 5408 5400
5803 5801 5799 5797 5796 5793 5791 5788 5786 5783 5780 5777 5774 5771 5768 5764 5761 5758 5754 5750 5746 5742 5738 5734 5730 5726 5722 5718 5714 5710 5706 5702 5698 5694 5690 5686 5682 5677 5673 5668 5663 5658 5653 5649 5644 5639 5634 5629 5625 5620 5615 5610 5606 5601 5596 5591 5586 5581 5576 5571 5565 5560 5554 5549 5543 5537 5532 5525 5519 5513 5507 5500 5494 5487 5481 5474 5467 5461 5454 5447 5440 5434 5427 5420 5413 5405 5398
5802 5800 5799 5797 5795 5792 5790 5787 5785 5782 5779 5776 5773 5770 5767 5763 5760 5756 5753 5749 5745 5741 5738 5733 5729 5725 5721 5717 5713 5709 5704 5700 5696 5692 5688 5684 5680 5675 5671 5666 5661 5656 5651 5646 5641 5636 5631 5626 5621 5616 5612 5607 5602 5597 5593 5588 5583 5578 5572 5567 5562 5557 5552 5546 5541 5535 5529 5523 5517 5511 5505 5498 5492 5485 5478 5472 5465 5458 5452 5445 5438 5431 5425 5418 5411 5403 5396
5801 5800 5798 5796 5794 5792 5789 5787 5784 5781 5778 5775 5772 5769 5766 5763 5759 5756 5752 5748 5745 5741 5737 5733 5728 5724 5720 5715 5711 5707 5703 5698 5694 5690 5686 5682 5677 5673 5668 5663 5659 5654 5649 5644 5638 5633 5628 5623 5618 5613 5608 5604 5599 5594 5589 5584 5579 5574 5569 5564 5559 5554 5549 5543 5538 5532 5526 5521 5515 5509 5502 5496 5489 5483 5476 5469 5463 5456 5450 5443 5436 5429 5422 5416 5409 5401 5394
5800 5799 5797 5795 5793 5791 5788 5786 5783 5781 5778 5775 5771 5768 5765 5762 5758 5755 5751 5748 5744 5740 5736 5732 5727 5723 5718 5714 5709 5705 5701 5697 5692 5688 5684 5680 5675 5671 5666 5661 5656 5651 5647 5641 5636 5631 5626 5621 5615 5610 5605 5600 5595 5590 5586 5581 5576 5571 5566 5561 5556 5551 5546 5540 5535 5529 5524 5518 5512 5506 5500 5494 5487 5481 5474 5467 5461 5454 5447 5441 5434 5427 5421 5414 5407 5400 5393
5800 5798 5796 5794 5792 5790 5787 5785 5782 5779 5776 5773 5770 5767 5764 5761 5757 5754 5750 5747 5743 5739 5735 5731 5726 5722 5717 5713 5708 5704 5699 5695 5690 5686 5682 5677 5673 5669 5664 5659 5654 5649 5644 5639 5634 5628 5623 5618 5612 5607 5602 5597 5592 5587 5582 5578 5573 5568 5563 5558 5553 5548 5543 5538 5532 5526 5521 5515 5510 5504 5498 5491 5485 5479 5472 5465 5459 5452 5445 5438 5432 5426 5419 5412 5405 5398 5391
5798 5797 5795 5793 5791 5788 5786 5784 5781 5778 5775 5773 5770 5766 5763 5760 5756 5753 5749 5745 5742 5738 5734 5730 5725 5721 5716 5712 5707 5702 5698 5693 5689 5684 5679 5675 5671 5667 5662 5657 5651 5646 5641 5636 5631 5626 5620 5615 5609 5604 5599 5594 5589 5584 5579 5574 5570 5565 5560 5555 5551 5545 5540 5535 5529 5524 5518 5512 5507 5501 5495 5489 5483 5476 5470 5463 5457 5450 5443 5436 5430 5423 5417 5410 5404 5397 5390
5797 5795 5793 5792 5789 5787 5785 5782 5780 5777 5775 5772 5769 5765 5762 5759 5755 5752 5748 5744 5740 5736 5732 5728 5724 5720 5715 5710 5706 5701 5696 5691 5687 5682 5677 5673 5669 5664 5660 5655 5650 5645 5639 5634 5629 5623 5618 5612 5607 5601 5596 5591 5586 5581 5576 5571 5567 5562 5557 5552 5548 5543 5537 5532 5526 5521 5515 5509 5503 5498 5492 5486 5480 5474 5468 5461 5455 5448 5441 5434 5428 5421 5414 5408 5401 5395 5388
5795 5794 5792 5790 5788 5786 5784 5781 5779 5776 5773 5770 5767 5764 5761 5757 5754 5750 5746 5743 5739 5735 5731 5727 5722 5718 5713 5709 5704 5700 5695 5690 5684 5680 5675 5670 5666 5662 5657 5652 5647 5643 5638 5632 5627 5621 5616 5610 5604 5599 5594 5588 5583 5578 5573 5568 5564 5559 5554 5549 5545 5540 5534 5529 5523 5518 5512 5506 5501 5495 5489 5483 5477 5471 5465 5459 5452 5446 5439 5433 5426 5419 5413 5406 5399 5393 5386
5793 5792 5790 5788 5786 5784 5782 5780 5777 5774 5772 5769 5766 5762 5759 5756 5752 5748 5745 5741 5737 5733 5729 5725 5721 5716 5712 5707 5702 5697 5693 5688 5683 5677 5672 5668 5663 5659 5655 5650 5645 5640 5635 5629 5624 5619 5613 5608 5602 5596 5591 5586 5581 5575 5571 5566 5561 5556 5551 5546 5542 5537 5532 5526 5521 5515 5510 5504 5498 5492 5487 5481 5475 5468 5462 5456 5450 5443 5437 5431 5424 5418 5411 5404 5398 5391 5385
5792 5790 5788 5787 5785 5782 5780 5778 5775 5773 5770 5767 5764 5761 5757 5754 5750 5747 5743 5739 5735 5731 5727 5722 5718 5714 5709 5705 5700 5695 5690 5686 5681 5676 5670 5665 5661 5657 5653 5648 5643 5637 5632 5627 5621 5616 5611 5605 5599 5594 5588 5583 5577 5572 5567 5563 5558 5553 5548 5543 5539 5534 5529 5523 5518 5513 5507 5502 5496 5490 5484 5478 5472 5466 5460 5454 5447 5441 5434 5428 5422 5416 5409 5403 5396 5390 5383
5790 5788 5787 5785 5783 5781 5778 5776 5773 5771 5768 5765 5762 5759 5755 5752 5748 5745 5741 5737 5733 5729 5724 5720 5716 5711 5707 5702 5697 5693 5688 5684 5680 5674 5669 5664 5659 5654 5650 5646 5641 5636 5630 5625 5619 5613 5608 5603 5597 5591 5585 5580 5574 5569 5564 5559 5554 5550 5545 5540 5536 5531 5526 5521 5515 5510 5505 5499 5494 5488 5482 5476 5470 5464 5457 5451 5445 5438 5432 5425 5419 5413 5407 5401 5394 5388 5381